Location: Cronhütte
(48.9135°N, 9.6869°E)
Time: 09:18:28
(UTC+00:00)

Lacrosse 5 rocket - Pass Details

Date: 23 May 2024
Orbit: 445 x 572 km, 57.0° (Epoch: 15 June)

Event Time Altitude Azimuth Distance (km) Brightness Sun altitude
Rises 01:19:35 0° 303° (WNW) 2,734 4.9 -15.4°
Reaches altitude 10° 01:21:53 10° 300° (WNW) 1,818 4.0 -15.2°
Maximum altitude 01:25:55 57° 222° (SW) 629 1.2 -14.8°
Drops below altitude 10° 01:29:45 10° 143° (SE) 1,732 3.6 -14.5°
Sets 01:31:54 0° 139° (SE) 2,591 4.6 -14.3°
